{"data":{"norad_id":59936,"epoch":"2026-09-21T10:04:31.577088Z","epoch_age_seconds":95015,"freshness":"FRESH","line1":"1 59936U 24106Q   26264.41980992 -.00000131  00000+0  47799-5 0  9993","line2":"2 59936  43.0020 307.4462 0001225 273.2037  86.8674 15.27580922130456","mean_motion":15.27580922,"eccentricity":0.0001225,"inclination_deg":43.002,"raan_deg":307.4462,"arg_perigee_deg":273.2037,"mean_anomaly_deg":86.8674,"bstar":4.7799e-6,"rev_number":13045,"period_min":94.266691817195,"perigee_km":482.20584028279,"apogee_km":483.88683019992,"semimajor_km":6861.1833352414,"source":"CELESTRAK","updated_at":"2026-09-22T09:00:49.113356Z"}}